Location: Karaa?a�
(36.7158°N, 30.4165°E)
Time: 08:56:24
(UTC+00:00)

SL-8 R/B - Pass Details

Date: 09 April 2020
Orbit: 656 x 667 km, 48.4° (Epoch: 31 May)

Event Time Altitude Azimuth Distance (km) Brightness Sun altitude
Rises 16:41:42 0° 305° (NW) 2,982 8.5 -3.6°
Reaches altitude 10° 16:44:03 10° 307° (NW) 2,067 7.6 -4.0°
Maximum altitude 16:48:50 83° 34° (NE) 664 3.7 -4.9°
Drops below altitude 10° 16:53:35 10° 124° (ESE) 2,057 5.6 -5.9°
Enters shadow 16:54:32 - 124° (SE) 2,420 6.0 -6.1°
